[[{"header":{"parameterUnit":"m.s-1","parameterCategory":1,"la1":30.2991,"la2":30.254,"lo1":-89.0895,"lo2":-89.0444,"dy":0.0017,"dx":0.0017,"nx":28,"ny":28,"refTime":"2023-10-24T21:00:00:Z","depth":0,"parameterNumber":2,"parameterNumberName":"U-component_of_WINDS"},"data":[0,0,0,0,0,0,0,0,0,0,0,0,0,0,0,0,0,0,0,0,0,0,0,0,0,0,0,0,0,0,0,0,0,0,0,0,0,0,0,0,0,0,0,0,0,0,0,0,0,0,0,0,0,0,0,0,0,0,-4.7688,-4.7689,0,-4.7798,-4.78,-4.7801,-4.7795,-4.7793,-4.7792,-4.779,-4.7905,-4.791,-4.7914,0,0,0,0,0,0,0,0,0,0,0,0,0,-4.7476,-4.7479,-4.7687,-4.7689,-4.769,-4.7798,-4.78,-4.7801,-4.7795,-4.7793,-4.7791,-4.7789,-4.7904,-4.7909,-4.7914,0,0,0,0,0,0,0,0,0,0,0,0,0,-4.7575,-4.7481,-4.7687,-4.77,-4.7702,-4.7798,-4.78,-4.7802,-4.7795,-4.7793,-4.7791,-4.7788,-4.7902,-4.7908,-4.7915,-4.8006,0,0,-4.7936,-4.7939,0,0,0,0,0,0,0,0,-4.7569,-4.7583,-4.7697,-4.7699,-4.7702,-4.778,-4.7767,-4.787,-4.7796,-4.776,-4.779,-4.7787,-4.7866,-4.7875,-4.7901,-4.8011,-4.8016,-4.7937,-4.7941,-4.7944,-4.7946,0,0,0,0,0,0,0,-4.7563,-4.7578,-4.7731,-4.7699,-4.7702,-4.7702,-4.7714,-4.7787,-4.7825,-4.7763,-4.7763,-4.7776,-4.7867,-4.7895,-4.7904,-4.8018,-4.7937,-4.7943,-4.7947,-4.795,-4.8212,-4.8215,0,0,0,0,0,0,-4.7552,-4.7572,-4.7728,-4.7735,-4.7628,-4.7708,-4.7721,-4.7758,-4.7824,-4.7832,-4.7778,-4.7775,-4.7884,-4.7896,-4.7908,-4.802,-4.7944,-4.795,-4.7954,-4.8209,-4.8213,-4.8216,0,0,0,0,0,0,-4.7548,-4.7566,-4.7723,-4.7654,-4.7674,-4.7714,-4.7756,-4.7761,-4.7789,-4.7835,-4.7843,-4.7799,-4.7883,-4.7898,-4.7982,-4.8024,-4.7953,-4.7959,-4.8206,-4.821,-4.8214,-4.8244,0,0,0,0,0,0,-4.7542,-4.7565,-4.7597,-4.7654,-4.7677,-4.7794,-4.7758,-4.7765,-4.7801,-4.7798,-4.7857,-4.7865,-4.7882,-4.7972,-4.7989,-4.8032,-4.7965,-4.8202,-4.8208,-4.8213,-4.8239,-4.8248,-4.8256,0,0,0,0,0,-4.7534,-4.7601,-4.7599,-4.7618,-4.7719,-4.7796,-4.7809,-4.7827,-4.7804,-4.7839,-4.787,-4.7863,-4.8018,-4.7981,-4.8,-4.8045,-4.8199,-4.8206,-4.8212,-4.8235,-4.8246,-4.8256,0,0,0,0,0,0,-4.7546,-4.7608,-4.7607,-4.7694,-4.774,-4.7795,-4.7838,-4.7838,-4.7892,-4.7887,-4.7909,-4.7922,-4.8007,-4.8035,-4.7993,-4.8139,-4.8106,-4.8116,-4.8116,-4.8128,-4.8136,-4.8127,-4.797,0,0,0,0,0,-4.756,-4.7616,-4.7667,-4.7739,-4.7762,-4.7797,-4.7831,-4.7842,-4.789,-4.791,-4.7946,-4.7995,-4.8055,-4.8093,-4.8151,-4.8245,-4.8259,-4.8286,-4.8295,-4.8302,-4.831,-4.8365,-4.8378,-4.8237,-4.8237,-4.8237,0,0,-4.7586,-4.7627,-4.7661,-4.7743,-4.7779,-4.7839,-4.7813,-4.7876,-4.7921,-4.7919,-4.8,-4.803,-4.8086,-4.8176,-4.8218,-4.8202,-4.8353,-4.831,-4.8315,-4.8319,-4.8373,-4.8386,-4.8398,-4.8241,-4.824,-4.824,0,0,-4.7665,-4.7701,-4.7766,-4.7805,-4.7862,-4.7886,-4.7902,-4.7958,-4.7978,-4.806,-4.8062,-4.8117,-4.8219,-4.826,-4.8294,-4.8396,-4.8393,-4.8414,-4.8458,-4.8512,-4.8523,-4.8533,-4.857,-4.8583,-4.8423,-4.8423,-4.8423,0,-4.769,-4.7779,-4.7799,-4.7864,-4.7901,-4.7905,-4.7972,-4.8009,-4.8082,-4.8109,-4.8091,-4.8222,-4.826,-4.8361,-4.8387,-4.8414,-4.8435,-4.8406,-4.852,-4.853,-4.8539,-4.8575,-4.8589,-4.8425,-4.8425,-4.8425,-4.8425,0,-4.7809,-4.7871,-4.7917,-4.7988,-4.8031,-4.8097,-4.813,-4.8171,-4.8181,-4.8207,-4.8293,-4.834,-4.8408,-4.8434,-4.8443,-4.8538,-4.8527,-4.8515,-4.8481,-4.8555,-4.8589,-4.8603,-4.8428,-4.8428,-4.8427,-4.8426,0,0,-4.7892,-4.7979,-4.7995,-4.8029,-4.8096,-4.8145,-4.8214,-4.8281,-4.8317,-4.837,-4.8428,-4.8518,-4.8508,-4.8547,-4.8562,-4.8609,-4.8689,-4.8591,-4.8593,-4.8608,-4.88,-4.8807,-4.8823,-4.8689,-4.8692,-4.8694,-4.8795,0,-4.7977,-4.8096,-4.812,-4.8224,-4.8284,-4.8292,-4.8352,-4.8401,-4.8429,-4.8485,-4.8517,-4.8581,-4.8562,-4.8587,-4.8634,-4.8669,-4.8728,-4.8663,-4.8745,-4.8748,-4.8728,-4.884,-4.8848,-4.894,-4.8808,-4.8811,-4.8812,0,-4.809,-4.8147,-4.8258,-4.8321,-4.8347,-4.8399,-4.8466,-4.8519,-4.8577,-4.8595,-4.8641,-4.8652,-4.8727,-4.8693,-4.8797,-4.8752,-4.8789,-4.8812,-4.8816,-4.8822,-4.8782,-4.8849,-4.897,-4.8983,-4.8833,-4.8832,-4.883,0,-4.814,-4.8245,-4.8325,-4.8355,-4.843,-4.8468,-4.8501,-4.8556,-4.8597,-4.8657,-4.8684,-4.8751,-4.8788,-4.8841,-4.8871,-4.8844,-4.8974,-4.8942,-4.8992,-4.8991,-4.9016,-4.9013,-4.9143,-4.9042,-4.9042,-4.9042,-4.9041,0,-4.8231,-4.8299,-4.8349,-4.8398,-4.8476,-4.8505,-4.8581,-4.8614,-4.8665,-4.8723,-4.8735,-4.8789,-4.8827,-4.8887,-4.8912,-4.8996,-4.9012,-4.903,-4.9035,-4.9028,-4.9025,-4.905,-4.9043,-4.9045,-4.9045,-4.9044,-4.9043,0,-4.8298,-4.8334,-4.8423,-4.8489,-4.8507,-4.8561,-4.8619,-4.8669,-4.87,-4.8773,-4.8792,-4.8842,-4.8914,-4.8951,-4.9041,-4.9058,-4.9152,-4.9154,-4.9132,-4.9134,-4.9182,-4.9176,-4.933,-4.9352,-4.9238,-4.9239,-4.924,0,-4.8352,-4.8404,-4.8478,-4.8517,-4.8552,-4.8616,-4.8659,-4.8692,-4.8736,-4.8809,-4.8851,-4.8925,-4.8984,-4.9101,-4.9146,-4.9216,-4.9219,-4.9269,-4.923,-4.9222,-4.922,-4.9216,-4.9222,-4.9274,-4.9275,-4.9276,-4.9277,0,-4.8445,-4.8462,-4.8522,-4.8592,-4.8643,-4.8698,-4.8753,-4.8786,-4.8828,-4.8878,-4.8953,-4.9,-4.9094,-4.9168,-4.9243,-4.928,-4.9286,-4.929,-4.9305,-4.9296,-4.9281,-4.929,-4.915,-4.9285,-4.9284,-4.9284,-4.9283,-4.9283,-4.8507,-4.8555,-4.8615,-4.8684,-4.873,-4.8782,-4.8833,-4.8873,-4.8935,-4.9014,-4.9031,-4.9111,-4.9173,-4.9274,-4.9314,-4.9379,-4.9368,-4.939,-4.9395,-4.94,-4.9402,-4.9274,-4.9393,-4.9393,-4.9393,-4.9392,-4.9392,0,-4.86,-4.8641,-4.8704,-4.8781,-4.8837,-4.8841,-4.8903,-4.8949,-4.9019,-4.9077,-4.9137,-4.9225,-4.9299,-4.9352,-4.9427,-4.9469,-4.9474,-4.9487,-4.9483,-4.9492,-4.9407,-4.9386,-4.9482,-4.9482,-4.9482,-4.9482,-4.9482,-4.9482,-4.8654,-4.8737,-4.8762,-4.887,-4.8911,-4.8989,-4.9025,-4.9075,-4.9121,-4.9219,-4.928,-4.9315,-4.9372,-4.9452,-4.9521,-4.9535,-4.9562,-4.9575,-4.9589,-4.9508,-4.9498,-4.9489,-4.9469,-4.9581,-4.9581,-4.9669,-4.967,-4.967]},{"header":{"parameterUnit":"m.s-1","parameterCategory":1,"la1":30.2991,"la2":30.254,"lo1":-89.0895,"lo2":-89.0444,"dy":0.0017,"dx":0.0017,"nx":28,"ny":28,"refTime":"2023-10-24T21:00:00:Z","depth":0,"parameterNumber":3,"parameterNumberName":"V-component_of_WINDS"},"data":[0,0,0,0,0,0,0,0,0,0,0,0,0,0,0,0,0,0,0,0,0,0,0,0,0,0,0,0,0,0,0,0,0,0,0,0,0,0,0,0,0,0,0,0,0,0,0,0,0,0,0,0,0,0,0,0,0,0,1.8496,1.8495,0,1.8443,1.8442,1.8442,1.8415,1.8415,1.8415,1.8415,1.8357,1.8356,1.8354,0,0,0,0,0,0,0,0,0,0,0,0,0,1.8574,1.8573,1.8496,1.8495,1.8495,1.8443,1.8442,1.8442,1.8415,1.8415,1.8415,1.8415,1.8358,1.8356,1.8354,0,0,0,0,0,0,0,0,0,0,0,0,0,1.8532,1.8572,1.8496,1.8475,1.8473,1.8443,1.8442,1.8441,1.8415,1.8415,1.8415,1.8415,1.8358,1.8356,1.8354,1.8339,0,0,1.8346,1.8345,0,0,0,0,0,0,0,0,1.8535,1.853,1.8479,1.8477,1.8474,1.8436,1.8449,1.8407,1.8415,1.8437,1.8415,1.8415,1.8383,1.8379,1.8369,1.8336,1.8334,1.8346,1.8345,1.8344,1.8343,0,0,0,0,0,0,0,1.8538,1.8532,1.8475,1.8478,1.8475,1.8469,1.8463,1.8441,1.841,1.8435,1.8433,1.8428,1.8382,1.8371,1.8367,1.8333,1.8346,1.8344,1.8343,1.8342,1.8292,1.8292,0,0,0,0,0,0,1.8544,1.8534,1.8476,1.8473,1.8505,1.8467,1.8461,1.8448,1.8411,1.8405,1.8428,1.8427,1.8375,1.837,1.8365,1.8348,1.8344,1.8342,1.834,1.8292,1.8292,1.8292,0,0,0,0,0,0,1.8546,1.8539,1.8479,1.8503,1.8495,1.8466,1.8452,1.8447,1.8436,1.8405,1.8399,1.8422,1.8375,1.8368,1.8347,1.8346,1.8341,1.8338,1.8292,1.8292,1.8292,1.8313,0,0,0,0,0,0,1.8548,1.854,1.8534,1.8503,1.8494,1.8461,1.8452,1.8446,1.8433,1.8431,1.8398,1.8393,1.8374,1.8351,1.8345,1.8342,1.8337,1.8291,1.8292,1.8292,1.8312,1.8314,1.8316,0,0,0,0,0,1.8551,1.854,1.8533,1.8527,1.8485,1.8461,1.8456,1.8436,1.8433,1.8426,1.8408,1.8394,1.8348,1.8349,1.8342,1.8339,1.8291,1.8292,1.8292,1.8312,1.8314,1.8315,0,0,0,0,0,0,1.8567,1.8535,1.8528,1.8506,1.8487,1.8457,1.8448,1.8438,1.8418,1.8416,1.8391,1.8384,1.8367,1.835,1.8353,1.8326,1.8318,1.8317,1.8336,1.8338,1.8339,1.8343,1.8335,0,0,0,0,0,1.8569,1.8552,1.8525,1.8509,1.85,1.8476,1.8465,1.8452,1.843,1.8421,1.8401,1.838,1.8361,1.8349,1.8329,1.8311,1.8305,1.8306,1.8308,1.8309,1.8308,1.8302,1.8303,1.8292,1.8292,1.8292,0,0,1.857,1.8551,1.8541,1.8512,1.8495,1.848,1.8469,1.8451,1.844,1.8418,1.8398,1.8383,1.8358,1.834,1.8331,1.8326,1.831,1.8309,1.8311,1.8309,1.8302,1.8303,1.8304,1.8292,1.8292,1.8292,0,0,1.8565,1.8548,1.8535,1.8521,1.8498,1.8483,1.8481,1.8454,1.8443,1.8424,1.8409,1.8395,1.8362,1.8347,1.8334,1.8332,1.832,1.8327,1.8334,1.8328,1.8329,1.8329,1.8331,1.8331,1.8326,1.8326,1.8326,0,1.8569,1.8546,1.8528,1.8514,1.8503,1.8487,1.8474,1.846,1.8431,1.8424,1.8421,1.8383,1.8365,1.8345,1.8346,1.8335,1.8333,1.8329,1.833,1.8331,1.8331,1.8332,1.8332,1.8327,1.8327,1.8327,1.8327,0,1.8553,1.8538,1.853,1.8507,1.8495,1.8481,1.8463,1.8453,1.8443,1.843,1.8412,1.8391,1.837,1.8364,1.8352,1.8344,1.8343,1.8335,1.8327,1.8333,1.8334,1.8334,1.8329,1.8328,1.8328,1.8328,0,0,1.8551,1.8524,1.8522,1.8513,1.849,1.8478,1.8466,1.8447,1.8441,1.8423,1.8413,1.8389,1.8384,1.8371,1.8358,1.8353,1.8357,1.8346,1.8345,1.835,1.835,1.8356,1.8357,1.835,1.835,1.835,1.8353,0,1.8544,1.8521,1.8509,1.8492,1.848,1.8468,1.8458,1.8443,1.8432,1.842,1.8407,1.8392,1.8384,1.8377,1.8372,1.8357,1.8356,1.8357,1.834,1.834,1.8347,1.8356,1.8361,1.8365,1.8353,1.8353,1.8353,0,1.853,1.8518,1.8501,1.8485,1.8479,1.847,1.8455,1.8444,1.8429,1.8421,1.841,1.8399,1.8387,1.8383,1.8368,1.8369,1.8362,1.8355,1.8355,1.8351,1.8346,1.8354,1.8365,1.8366,1.8352,1.8352,1.8352,0,1.8533,1.8511,1.85,1.8493,1.8473,1.8468,1.8459,1.8445,1.8437,1.8424,1.8419,1.8404,1.8396,1.8386,1.8372,1.837,1.836,1.8353,1.8354,1.8355,1.835,1.8351,1.8361,1.8347,1.8347,1.8347,1.8347,0,1.8525,1.8515,1.8501,1.8494,1.8484,1.8472,1.8462,1.8453,1.8442,1.8433,1.8422,1.8414,1.8397,1.8387,1.8377,1.8368,1.8364,1.8358,1.8355,1.8359,1.836,1.8353,1.8353,1.8347,1.8347,1.8347,1.8347,0,1.8524,1.8514,1.8501,1.8487,1.8483,1.8477,1.8465,1.8458,1.8449,1.8439,1.8436,1.8421,1.841,1.8397,1.838,1.8374,1.8367,1.8362,1.8372,1.8371,1.8373,1.8374,1.8379,1.838,1.8365,1.8365,1.8365,0,1.852,1.8513,1.85,1.8495,1.8488,1.8479,1.8473,1.8462,1.8456,1.8442,1.8438,1.8427,1.8418,1.8402,1.839,1.8379,1.8374,1.8377,1.8372,1.8378,1.8376,1.8377,1.8377,1.8378,1.8378,1.8378,1.8378,0,1.8514,1.8511,1.8502,1.8494,1.8488,1.848,1.8471,1.8468,1.8456,1.8449,1.844,1.8434,1.8421,1.8411,1.84,1.8392,1.8384,1.8381,1.8381,1.8384,1.8391,1.839,1.8376,1.838,1.838,1.838,1.838,1.838,1.8511,1.8507,1.8499,1.8491,1.8486,1.848,1.8474,1.8468,1.846,1.845,1.8445,1.8437,1.8427,1.8412,1.8405,1.8399,1.8396,1.8395,1.8395,1.8395,1.8398,1.8394,1.8397,1.8397,1.8397,1.8397,1.8397,0,1.8506,1.8502,1.8496,1.8487,1.8483,1.8479,1.8472,1.8468,1.8461,1.8454,1.8448,1.844,1.8432,1.8422,1.8414,1.8412,1.8409,1.8411,1.841,1.8409,1.84,1.8401,1.8414,1.8414,1.8414,1.8414,1.8414,1.8414,1.8502,1.8496,1.8494,1.8486,1.8481,1.8475,1.8472,1.8468,1.8463,1.8455,1.845,1.8445,1.8438,1.8431,1.8425,1.8422,1.842,1.8423,1.842,1.8411,1.8409,1.8408,1.8409,1.8423,1.8423,1.843,1.843,1.843]}]]